{"data":{"norad_id":60541,"epoch":"2026-09-22T03:34:13.361664Z","epoch_age_seconds":146592,"freshness":"FRESH","line1":"1 60541U 24149CB  26265.14876576  .00007658  00000+0  44247-3 0  9990","line2":"2 60541  97.6932 354.0248 0002560 342.6858  17.4285 15.12590304115430","mean_motion":15.12590304,"eccentricity":0.000256,"inclination_deg":97.6932,"raan_deg":354.0248,"arg_perigee_deg":342.6858,"mean_anomaly_deg":17.4285,"bstar":0.00044247,"rev_number":11543,"period_min":95.200927587065,"perigee_km":526.53585238777,"apogee_km":530.07195012922,"semimajor_km":6906.4409012585,"source":"CELESTRAK","updated_at":"2026-09-23T09:00:20.671441Z"}}